Weather Roundup
Issued by NWS

Home | Current Version | Previous Version | Graphics & Text | Print | Product List | Glossary Off
Versions: 1 2 3 4 5 6 7 8 9 10 11 12 13 14 15 16 17 18 19 20 21 22 23 24 25 26 27 28 29 30 31 32 33 34 35 36 37 38 39 40 41 42 43 44 45 46 47 48 49 50

883
NZUS93 KARX 221710
HRRWXR

CURRENT HOURLY OBSERVATIONS ACROSS
MUCH OF THE UPPER MISSISSIPPI VALLEY
NATIONAL WEATHER SERVICE LA CROSSE WI
1100 AM CST WED FEB 22 2017


...SOUTHEAST MINNESOTA...


CITY           SKY/WX    TMP DP  RH WIND       PRES   REMARKS
ROCHESTER      SUNNY     53  40  61 W7        29.59F
ROCHESTER/MAYO FAIR      53  39  59 CALM      29.58F
WINONA         MOSUNNY   54  37  54 CALM      29.61F
AUSTIN         SUNNY     52  39  62 W3        29.58F
ALBERT LEA     CLOUDY    52  39  62 W6        29.58F
DODGE CENTER   MOSUNNY   48  41  76 S7        29.56F
PRESTON        SUNNY     51  38  63 W12       29.61R
OWATONNA       MOSUNNY   52  39  62 W5        29.58S
FARIBAULT      CLOUDY    48  39  71 CALM      29.58F
$$

...ELSEWHERE IN MINNESOTA...


CITY           SKY/WX    TMP DP  RH WIND       PRES   REMARKS
MINNEAPOLIS    CLOUDY    47  41  80 CALM      29.58F
INTNL FALLS    CLOUDY    34  30  85 NE8       29.70S WCI  27
DULUTH         CLOUDY    44  36  73 NE5       29.61S
RED WING       CLOUDY    48  37  66 CALM      29.57F
REDWOOD FALLS  CLOUDY    46  41  82 W7        29.58F
MANKATO          N/A     46  40  79 NW5       29.59F
WORTHINGTON    MOSUNNY   52  41  66 SW8       29.60F
FAIRMONT       PTSUNNY   48  41  76 N6        29.59F
$$

...SOUTHWEST WISCONSIN...


CITY           SKY/WX    TMP DP  RH WIND       PRES   REMARKS
LA CROSSE      PTSUNNY   55  36  48 S7        29.60F
PRAIRIE DU CHI MOSUNNY   60  38  43 S7        29.62F
BOSCOBEL       SUNNY     63  40  42 SW12      29.62F
LONE ROCK      SUNNY     61  44  53 SW13      29.63F
PLATTEVILLE    SUNNY     61  51  70 S20       29.67F
FORT MC COY    CLOUDY    56  37  47 W5        29.60F
CAMP DOUGLAS   PTSUNNY   59  37  44 SW10      29.59F
MAUSTON-NEW LI CLOUDY    58  41  52 SW9       29.60S
VIROQUA        FAIR      55  39  54 SW12      29.60F
WIS DELLS      SUNNY     60  42  50 SW15G24   29.60F
$$

...ELSEWHERE IN WISCONSIN...


CITY           SKY/WX    TMP DP  RH WIND       PRES   REMARKS
MILWAUKEE      MOSUNNY   61  52  72 SW18      29.69F
MADISON        MOSUNNY   59  48  67 S14G23    29.65F
GREEN BAY      MOSUNNY   56  48  74 SW12      29.62F
EAU CLAIRE     CLOUDY    51  39  63 VRB3      29.58F
BLACK RVR FLS  FAIR      56  33  42 SW5       29.59F
MEDFORD        CLOUDY    48  38  67 CALM      29.58S
WAUSAU         SUNNY     53  37  54 CALM      29.58F
WIS RAPIDS     MOSUNNY   59  37  44 W8        29.60F
MARSHFIELD     CLOUDY    51  37  58 SW5       29.58F
RICE LAKE      PTSUNNY   45  40  83 CALM      29.62R
$$

...NORTHEAST IOWA...


CITY           SKY/WX    TMP DP  RH WIND       PRES   REMARKS
WATERLOO       MOSUNNY   61  38  42 S12       29.61F
DUBUQUE        SUNNY     62  47  57 SW25      29.66F
DECORAH        CLOUDY    55  39  54 SW9       29.60S
MASON CITY     PTSUNNY   52  40  63 SW10      29.61R
CHARLES CITY   CLOUDY    50  43  76 SW8G16    29.61F
OELWEIN        MOSUNNY   57  43  58 S15       29.63F
$$

...ELSEWHERE IN IOWA...


CITY           SKY/WX    TMP DP  RH WIND       PRES   REMARKS
DES MOINES     MOSUNNY   70  32  24 SW18      29.60F
IOWA CITY      SUNNY     67  48  50 S15       29.69F
FORT DODGE     SUNNY     55  41  58 W9        29.62F
MARSHALLTOWN   SUNNY     63  38  39 SW16      29.60F
CEDAR RAPIDS   SUNNY     65  47  52 S18       29.65F
$$

...NORTHERN ILLINOIS...


CITY           SKY/WX    TMP DP  RH WIND       PRES   REMARKS
CHICAGO-OHARE  CLOUDY    58  53  84 SW12      29.76F
CHICAGO-MIDWAY CLOUDY    55  52  89 SW12      29.78F FOG
MOLINE         SUNNY     63  55  75 S16G22    29.71F
ROCKFORD       MOSUNNY   60  54  80 SW15      29.75F
PEORIA         CLOUDY    56  56 100 S13       29.79F FOG
$$

NOTE: "FAIR" INDICATES FEW OR NO CLOUDS BELOW 12,000 FEET WITH NO
SIGNIFICANT WEATHER AND/OR OBSTRUCTIONS TO VISIBILITY. WIND
SPEEDS ARE IN MILES-PER-HOUR.




USA.gov is the U.S. government's official web portal to all federal, state and local government web resources and services.